This demonstration page uses our WeatherBlox Daily Observations layout. Learn more.

Left ArrowRight Arrow

39.12711, -84.51439

Hourly Observations for May 6, 2018

Temp ( °F °C ) Dew Point ( °F °C ) Humidity (%) Winds ( mph kmh ) Pressure ( in mb ) Visibility ( mi km ) Precip ( " mm )
12:53 am 00:53 Cloudy 57 13.9 57 13.9 100 100 Calm 29.99 1016 10 16 0.00 0.00
1:53 am 01:53 Mostly Cloudy 56 13.3 56 13.3 100 100 SE 3 6 29.97 1015 10 16 0.00 0.00
2:53 am 02:53 Clear with Mist and Fog 55 12.8 55 12.8 100 100 SSE 3 6 29.97 1015 4 6 0.00 0.00
3:45 am 03:45 Clear with Mist and Fog 54 12.2 54 12.2 100 100 Calm 29.97 1015 2 3 0.00 0.00
3:53 am 03:53 Clear with Mist and Fog 55 12.8 55 12.8 100 100 Calm 29.98 1015 1 2 0.00 0.00
3:58 am 03:58 Clear with Mist and Fog 55 12.8 55 12.8 100 100 Calm 29.97 1015 3 5 0.00 0.00
4:21 am 04:21 Mostly Clear with Mist and Fog 55 12.8 55 12.8 100 100 Calm 29.97 1015 2 2 0.00 0.00
4:24 am 04:24 Mostly Cloudy with Mist and Fog 55 12.8 55 12.8 100 100 Calm 29.97 1015 1 1 0.00 0.00
4:44 am 04:44 Mostly Clear with Mist and Fog 54 12.2 54 12.2 100 100 Calm 29.97 1015 2 2 0.00 0.00
4:49 am 04:49 Mostly Clear with Mist and Fog 55 13 55 13 100 100 Calm 30.00 1016 3 5 0.00 0.00
4:53 am 04:53 Clear with Mist and Fog 55 12.8 55 12.8 100 100 Calm 29.98 1015 5 8 0.00 0.00
5:19 am 05:19 Clear with Mist and Fog 54 12.2 54 12.2 100 100 Calm 29.97 1015 2 2 0.00 0.00
5:29 am 05:29 Clear with Mist and Fog 54 12.2 54 12.2 100 100 Calm 29.97 1015 1 1 0.00 0.00
5:37 am 05:37 Clear with Mist and Fog 55 12.8 55 12.8 100 100 Calm 29.97 1015 2 3 0.00 0.00
5:48 am 05:48 Clear with Mist and Fog 54 12 54 12 100 100 Calm 29.97 1015 5 8 0.00 0.00
5:53 am 05:53 Clear with Mist and Fog 54 12.2 54 12.2 100 100 Calm 29.98 1015 6 10 0.00 0.00
6:53 am 06:53 Sunny with Patchy Fog 54 12.2 54 12.2 100 100 ENE 3 6 29.98 1015 9 14 0.00 0.00
7:53 am 07:53 Sunny with Patchy Fog 55 12.8 55 12.8 100 100 Calm 29.99 1016 7 11 0.00 0.00
8:53 am 08:53 Sunny with Patchy Fog 58 14.4 58 14.4 100 100 Calm 29.98 1015 6 10 0.00 0.00
9:53 am 09:53 Sunny with Patchy Fog 62 16.7 58 14.4 86 86 Calm 29.98 1015 10 16 0.00 0.00
10:53 am 10:53 Sunny 67 19.4 58 14.4 73 73 VRB 5 7 29.98 1015 10 16 0.00 0.00
11:53 am 11:53 Sunny 70 21.1 59 15 68 68 S 6 9 29.97 1015 10 16 0.00 0.00
12:53 pm 12:53 Sunny 73 22.8 56 13.3 55 55 SE 6 9 29.96 1015 10 16 0.00 0.00
1:53 pm 13:53 Sunny 75 23.9 55 12.8 50 50 S 6 9 29.95 1014 10 16 0.00 0.00
2:53 pm 14:53 Sunny 77 25 56 13.3 48 48 VRB 5 7 29.93 1014 10 16 0.00 0.00
3:53 pm 15:53 Sunny 77 25 56 13.3 48 48 SSW 7 11 29.90 1012 10 16 0.00 0.00
4:34 pm 16:34 Partly Cloudy with Nearby Thunderstorms 75 23.9 56 13.3 52 52 S 9 15 29.91 1013 10 16 0.00 0.00
4:53 pm 16:53 Mostly Cloudy with Nearby Thunderstorms 74 23.3 56 13.3 54 54 S 5 7 29.88 1012 10 16 0.00 0.03
5:19 pm 17:19 Cloudy with Thunderstorms 69 20.6 64 17.8 84 84 VRB 5 7 29.91 1013 9 14 0.01 0.25
5:41 pm 17:41 Windy with Storms Likely 69 20.6 52 11.1 55 55 W 28 44 29.91 1013 9 14 0.01 0.25
5:53 pm 17:53 Cloudy with Thunderstorms 62 16.7 55 12.8 78 78 WSW 17 28 29.97 1015 3 5 0.07 1.78
6:17 pm 18:17 Cloudy with Thunderstorms 61 16.1 57 13.9 87 87 SSW 5 7 29.94 1014 5 8 0.06 1.52
6:35 pm 18:35 Cloudy with Light Rain 61 16.1 59 15 93 93 VRB 5 7 29.94 1014 10 16 0.07 1.78
6:53 pm 18:53 Cloudy with Light Rain 60 15.6 59 15 96 96 E 7 11 29.97 1015 9 14 0.07 1.78
7:53 pm 19:53 Mostly Cloudy 61 16.1 60 15.6 97 97 SW 5 7 29.95 1014 9 14 0.00 0.03
8:53 pm 20:53 Cloudy 60 15.6 60 15.6 100 100 Calm 29.98 1015 9 14 0.00 0.00
9:53 pm 21:53 Cloudy 60 15.6 60 15.6 100 100 NNE 3 6 30.00 1016 7 11 0.00 0.00
10:53 pm 22:53 Cloudy with Mist and Fog 59 15 59 15 100 100 SW 5 7 30.02 1017 5 8 0.00 0.00
11:53 pm 23:53 Cloudy 59 15 59 15 100 100 SW 5 7 30.02 1017 10 16 0.00 0.03

Powered by AerisWeather